Weather in Bagan

Myanmar     21°10′34″N   94°52′13″E
temp.,
°C
wind,
m/s
gust,
m/s
humid.,
%
clouds,
%
prec.,
mm/h
press.,
hPa
HPBL,
m
21 june, mon
mon2100:30+25s6118198 0.0 1005574
03:30+25s598362 0.0 1005543
06:30+25s588338 0.0 1005574
09:30+29s556861 0.1 10061022
12:30+33s555299 0.1 10031629
15:30+34ssw874376 0.1 10001793
18:30+31s79555 0.1 1001975
21:30+28s7117131 0.4 1004592
22 june, tue
tue2200:30+26s6107566 0.9 1004525
03:30+25s598098 1.3 1004483
06:30+26s597952 2.2 1006505
09:30+30s566180 0.0 10061026
12:30+34s554798 0.0 10041746
15:30+33s6749100 0.1 10021597
18:30+32ssw7855100 0.1 1003853
21:30+29s6963100 0.0 1005544
23 june, wed
wed2300:30+27s71070100 0.1 1005683
03:30+26s61078100 0.4 1005608
06:30+25s7981100 0.5 1006567
09:30+30s6762100 0.0 10081093
12:30+34s5546100 0.0 10051756
15:30+36s5539100 0.0 10022329
18:30+32sse795370 0.1 10031049
21:30+29s71062100 0.0 1005569
24 june, thu
thu2400:30+28s71070100 0.0 1004590
03:30+26s697548 0.0 1003542
06:30+26s697634 0.5 1004550
09:30+31s6658100 0.1 10051029
12:30+35s554472 0.1 10021705
15:30+35sse6542100 0.0 9991838
18:30+32s5752100 0.1 10001009
21:30+30s71061100 0.1 1002652
25 june, fri
fri2500:30+28s71068100 0.2 1002615
03:30+27s697593 0.5 1001605
06:30+26sse6977100 3.7 1002592
09:30+28s577195 1.8 1003839
12:30+31s4558100 1.8 10021194
15:30+31sse5659100 0.1 10001053
18:30+29sse61066100 0.1 1000576
21:30+28sse81171100 0.4 1002623